ZHONGXING-2A

Last updated on Wed Sep 09 2026 00:02:59 GMT+0000 (Coordinated Universal Time)

1 38352U 12028A 26251.46457991 -.00000314 00000+0 00000+0 0 9992 2 38352 1.6627 82.6927 0001160 140.3035 30.0398 1.00273621 52139
UTC large
Height (km)
Speed (km/s)
/
Latitude / Longitude
Inclination (degrees)
Orbital Period (minutes)
Azimuth
Elevation
Range (km)
Doppler Factor

Next 0 passes for location: London (51.5072 / 0.1276)

No passes found over London.
ZHONGXING-2A